Location: Be Tobo
(6.6442°N, 10.6239°W)
Time: 01:27:36
(UTC+00:00)

Helios 1A Rocket - Pass Details

Date: 18 September 2020
Orbit: 563 x 586 km, 98.3° (Epoch: 21 October)

Event Time Altitude Azimuth Distance (km) Brightness Sun altitude
Rises 19:31:24 0° 174° (S) 2,761 6.3 -13.5°
Reaches altitude 10° 19:33:33 10° 178° (S) 1,867 5.5 -14.0°
Maximum altitude 19:37:32 60° 258° (WSW) 654 3.5 -15.0°
Drops below altitude 10° 19:41:33 10° 339° (NNW) 1,877 5.8 -16.0°
Sets 19:43:43 0° 342° (NNW) 2,777 6.7 -16.5°
